Location: Chiroubles
(46.1812°N, 4.6660°E)
Time: 01:28:49
(UTC+00:00)

Explorer 7 - Pass Details

Date: 05 December 2020
Orbit: 484 x 678 km, 50.3° (Epoch: 25 January)

Event Time Altitude Azimuth Distance (km) Brightness Sun altitude
Exits shadow 03:32:56 12° 97° (E) 1,681 10.0 -36.4°
Drops below altitude 10° 03:33:12 11° 98° (E) 1,781 10.1 -36.3°
Sets 03:35:29 0° 102° (ESE) 2,681 11.3 -35.9°
